Weather History for Cape Girardeau, MO

Change the Weather History Date:

Tuesday, March 26, 2013

  Actual Average Record
Temperature  
Mean Temperature 37 °F 50 °F  
Max Temperature 47 °F 62 °F 82 °F (2007)
Min Temperature 26 °F 39 °F 20 °F (2014)
Degree Days  
Heating Degree Days 28 15  
Month to date heating degree days 632 489  
Since 1 July heating degree days 3871 3986  
Cooling Degree Days 0 0  
Month to date cooling degree days 0 0  
Year to date cooling degree days 0 0  
Moisture  
Dew Point 25 °F    
Average Humidity 63    
Maximum Humidity 85    
Minimum Humidity 41    
Precipitation  
Precipitation T in 0.16 in 1.35 in (1994)
Month to date precipitation 1.81 3.62  
Year to date precipitation 8.43 10.50  
Sea Level Pressure  
Sea Level Pressure 30.30 in    
Wind  
Wind Speed 7 mph (NW)    
Max Wind Speed 16 mph    
Max Gust Speed 26 mph    
Visibility 10 miles    
Events Snow    
T = Trace of Precipitation, MM = Missing Value Source: NWS Daily Summary

Daily Weather History Graph

Daily Weather History Graph

Search for Another Location

Airport:

Trip Planner

Search our weather history database for the weather conditions in past years. The results will help you decide how hot, cold, wet, or windy it might be!

Date:

Astronomy

Mar. 26, 2013 Rise Set
Actual Time 6:52 AM CDT 7:15 PM CDT
Civil Twilight 6:26 AM CDT 7:41 PM CDT
Nautical Twilight 5:55 AM CDT 8:12 PM CDT
Astronomical Twilight 5:24 AM CDT 8:43 PM CDT
Moon 6:52 PM CDT (3/26) 6:08 AM CDT (3/26)
Length of Visible Light 13h 15m
Length of Day
12h 23m
Waxing Gibbous, 99% of the Moon is Illuminated
Mar 26
Waxing Gibbous
Mar 27
Full
Apr 2
Last Quarter
Apr 10
New
Apr 18
First Quarter

Hourly Weather History & Observations

Time (CDT) Temp. Windchill Dew Point Humidity Pressure Visibility Wind Dir Wind Speed Gust Speed Precip Events Conditions
12:53 AM 30.9 °F 23.5 °F 28.0 °F 89% 30.22 in 4.0 mi WNW 8.1 mph - 0.00 in Snow Light Snow
1:53 AM 30.9 °F 22.2 °F 26.1 °F 82% 30.22 in 10.0 mi WNW 10.4 mph - 0.00 in   Scattered Clouds
2:53 AM 30.0 °F 21.7 °F 26.1 °F 85% 30.22 in 10.0 mi WNW 9.2 mph - N/A   Clear
3:53 AM 30.0 °F 22.4 °F 25.0 °F 82% 30.22 in 10.0 mi WNW 8.1 mph - N/A   Clear
4:53 AM 30.0 °F 23.2 °F 25.0 °F 82% 30.22 in 10.0 mi NW 6.9 mph - N/A   Clear
5:53 AM 28.0 °F 22.8 °F 24.1 °F 85% 30.24 in 10.0 mi WNW 4.6 mph - N/A   Clear
6:53 AM 28.9 °F 21.1 °F 24.1 °F 82% 30.26 in 10.0 mi NW 8.1 mph - N/A   Clear
7:53 AM 30.9 °F 26.2 °F 26.1 °F 82% 30.28 in 10.0 mi WNW 4.6 mph - N/A   Clear
8:53 AM 33.1 °F 25.5 °F 26.1 °F 75% 30.31 in 10.0 mi NW 9.2 mph - N/A   Overcast
9:53 AM 35.1 °F 27.9 °F 27.0 °F 72% 30.32 in 10.0 mi NW 9.2 mph - N/A   Overcast
10:53 AM 37.9 °F 32.1 °F 28.0 °F 68% 30.34 in 10.0 mi NW 8.1 mph - N/A   Overcast
11:53 AM 39.9 °F 32.9 °F 27.0 °F 60% 30.34 in 10.0 mi WNW 11.5 mph - N/A   Overcast
12:53 PM 39.9 °F 33.9 °F 25.0 °F 55% 30.34 in 10.0 mi NW 9.2 mph - N/A   Overcast
1:53 PM 42.1 °F 38.4 °F 24.1 °F 49% 30.34 in 10.0 mi Variable 5.8 mph - N/A   Overcast
2:53 PM 44.1 °F 38.6 °F 25.0 °F 47% 30.32 in 10.0 mi WNW 10.4 mph - N/A   Overcast
3:53 PM 45.0 °F 40.6 °F 23.0 °F 42% 30.31 in 10.0 mi NW 8.1 mph - N/A   Scattered Clouds
4:53 PM 46.9 °F - 24.1 °F 41% 30.30 in 10.0 mi NW 10.4 mph 17.3 mph N/A   Partly Cloudy
5:53 PM 45.0 °F 39.7 °F 23.0 °F 42% 30.31 in 10.0 mi NNW 10.4 mph - N/A   Clear
6:53 PM 42.1 °F 37.1 °F 25.0 °F 51% 30.32 in 10.0 mi North 8.1 mph - N/A   Clear
7:53 PM 37.0 °F 31.6 °F 25.0 °F 62% 30.34 in 10.0 mi North 6.9 mph - N/A   Clear
8:53 PM 35.1 °F 30.1 °F 24.1 °F 64% 30.35 in 10.0 mi NNE 5.8 mph - N/A   Clear
9:53 PM 33.1 °F - 24.1 °F 70% 30.36 in 10.0 mi Calm Calm - N/A   Clear
10:53 PM 30.0 °F - 26.1 °F 85% 30.37 in 10.0 mi Calm Calm - N/A   Clear
11:53 PM 28.9 °F - 24.1 °F 82% 30.38 in 10.0 mi Calm Calm - N/A   Clear